Location: Unspecified
(0.0000°N, 0.0000°E)
Time: 20:22:55
(UTC+00:00)

COSMOS 1275 DEB - Pass Details

Date: 19 March 2026
Orbit: 902 x 973 km, 82.9° (Epoch: 8 April)

Event Time Altitude Azimuth Distance (km) Brightness Sun altitude
Rises 19:06:47 0° 341° (NNW) 3,652 ? -14.8°
Reaches altitude 10° 19:09:28 10° 333° (NNW) 2,707 ? -15.4°
Maximum altitude 19:15:08 38° 267° (W) 1,444 ? -16.9°
Drops below altitude 10° 19:20:47 10° 201° (SSW) 2,695 ? -18.3°
Sets 19:23:28 0° 193° (SSW) 3,634 ? -18.9°
